Location: Haulchin
(50.3172°N, 3.4360°E)
Time: 21:14:19
(UTC+00:00)

Cosmos 1908 Rocket - Pass Details

Date: 23 May 2024
Orbit: 602 x 628 km, 82.5° (Epoch: 14 June)

Event Time Altitude Azimuth Distance (km) Brightness Sun altitude
Rises 01:50:45 0° 342° (NNW) 2,923 7.7 -13.6°
Reaches altitude 10° 01:53:09 10° 333° (NNW) 2,007 6.6 -13.4°
Maximum altitude 01:57:08 33° 270° (W) 1,050 4.5 -13.1°
Enters shadow 01:59:28 20° 220° (SW) 1,449 4.8 -12.9°
